User: anonymous   Login
Location: Narrabri
(30.3170°S, 149.7830°E)
Time: 21:13:58
(UTC+10:00)
Language:

Vanguard 2 Rocket - Orbit

View from above orbital plane
View from above orbital plane
View from above satellite
View from above satellite

Ground track
Ground track

The orbit data is extracted from the following two-line orbital elements,

1    12U 59001B   18170.86328925 +.00000195 +00000-0 +96156-4 0  9994
2    12 032.9078 019.9464 1667571 205.6485 145.1219 11.44242593196509
Epoch (UTC): 19 June 2018 20:43:08
Eccentricity: 0.1667571
inclination: 32.9078°
perigee height: 553 km
apogee height: 3328 km
right ascension of ascending node: 19.9464°
argument of perigee: 205.6485°
revolutions per day: 11.44242593
mean anomaly at epoch: 145.1219°
orbit number at epoch: 19650

The dashed part of the orbit path shows where the satellite is in the earth's shadow,  

DLR